"Pseudo-MPEC" for ZH87F10

Created 2018 Apr 23 3:18:12 UT using Find_Orb

Click here for an explanation of pseudo-MPECs

 
 Astrometry: 
     ZH87F10  C2018 04 16.27520 12 12 33.81 -09 42 02.2          21.3 GUNEOCPG96
     ZH87F10  C2018 04 16.28035 12 12 31.57 -09 42 05.4          21.9 GUNEOCPG96
     ZH87F10  C2018 04 16.28551 12 12 29.35 -09 42 09.5          21.4 GUNEOCPG96
     ZH87F10  C2018 04 16.29067 12 12 27.19 -09 42 12.6          21.1 GUNEOCPG96

Station data:
(G96) Mt. Lemmon Survey  (N32.442754 W110.788720)  US/Arizona.  Observers E.
   J. Christensen, A. R. Gibbs, A. D. Grauer, R. E. Hill, J. A. Johnson, R.
   A. Kowalski, S. M. Larson, F. C. Shelly. 1.5-m reflector + CCD.

Orbital elements:  ZH87F10
   Perigee 2018 Apr 14.200242 +/- 96.6 TT =  4:48:21 (JD 2458222.700242)
Epoch 2018 Apr 16.0 TT = JDT 2458224.5                        AutoNEOCP
q 12796.7961 +/- 6.35e+7            (J2000 equator)
H   32.8  G 0.15                    Peri.   66.02159 +/- 70
                                    Node   336.37110 +/- 31
e   1.2014966 +/- 0.224             Incl.   19.86817 +/- 39
From 4 observations 2018 Apr. 16 (22.3 min); mean residual 0".19
Residuals in arcseconds: 
180416 G96  .00   .25-    180416 G96  .09-  .13-    
180416 G96  .05+  .44+    180416 G96  .04+  .06-    

Ephemerides (geocentric):
Date (UTC) HH   RA              Dec         delta   r     elong  mag " sig PA
---- -- -- --  ------------   ------------  ------ ------ -----  --- ---- ---
2018 04 23 03  12 25 33.650   -10 11 14.87  .01433 1.0185 156.3 24.8  29d   1
2018 04 23 04  12 25 35.555   -10 11 22.02  .01439 1.0186 156.3 24.8  29d   1
2018 04 23 05  12 25 37.453   -10 11 29.14  .01445 1.0186 156.2 24.8  29d   1
2018 04 23 06  12 25 39.344   -10 11 36.22  .01452 1.0187 156.2 24.8  29d   1
2018 04 23 07  12 25 41.229   -10 11 43.28  .01458 1.0188 156.2 24.8  29d   1
2018 04 23 08  12 25 43.107   -10 11 50.31  .01464 1.0188 156.1 24.8  30d   1
2018 04 23 09  12 25 44.979   -10 11 57.31  .01471 1.0189 156.1 24.8  30d   1
2018 04 23 10  12 25 46.845   -10 12 04.28  .01477 1.0190 156.1 24.8  30d   1
2018 04 23 11  12 25 48.705   -10 12 11.22  .01483 1.0190 156.0 24.8  30d   1
2018 04 23 12  12 25 50.558   -10 12 18.13  .01490 1.0191 156.0 24.9  30d   1
2018 04 23 13  12 25 52.406   -10 12 25.02  .01496 1.0192 156.0 24.9  30d   1
2018 04 23 14  12 25 54.247   -10 12 31.88  .01502 1.0192 155.9 24.9  30d   1
2018 04 23 15  12 25 56.083   -10 12 38.71  .01509 1.0193 155.9 24.9  30d   1
2018 04 23 16  12 25 57.913   -10 12 45.52  .01515 1.0194 155.9 24.9  30d   1
2018 04 23 17  12 25 59.738   -10 12 52.31  .01521 1.0194 155.9 24.9  30d   1
2018 04 23 18  12 26 01.557   -10 12 59.07  .01528 1.0195 155.8 24.9  30d   1
2018 04 23 19  12 26 03.371   -10 13 05.80  .01534 1.0196 155.8 24.9  30d   1
2018 04 23 20  12 26 05.179   -10 13 12.51  .01541 1.0196 155.8 24.9  30d   1
2018 04 23 21  12 26 06.983   -10 13 19.20  .01547 1.0197 155.7 24.9  30d   1
2018 04 23 22  12 26 08.781   -10 13 25.86  .01553 1.0198 155.7 25.0  30d   1
2018 04 23 23  12 26 10.574   -10 13 32.50  .01560 1.0198 155.7 25.0  30d   1
2018 04 24 00  12 26 12.362   -10 13 39.12  .01566 1.0199 155.6 25.0  30d   1
2018 04 24 01  12 26 14.145   -10 13 45.71  .01572 1.0200 155.6 25.0  30d   1
2018 04 24 02  12 26 15.923   -10 13 52.29  .01579 1.0200 155.6 25.0  30d   1
2018 04 24 03  12 26 17.697   -10 13 58.84  .01585 1.0201 155.5 25.0  30d   1
2018 04 24 04  12 26 19.465   -10 14 05.37  .01591 1.0202 155.5 25.0  31d   2
2018 04 24 05  12 26 21.230   -10 14 11.88  .01598 1.0202 155.5 25.0  31d   2
2018 04 24 06  12 26 22.989   -10 14 18.37  .01604 1.0203 155.4 25.0  31d   2
2018 04 24 07  12 26 24.744   -10 14 24.84  .01610 1.0203 155.4 25.0  31d   2
2018 04 24 08  12 26 26.495   -10 14 31.29  .01617 1.0204 155.4 25.1  31d   2
2018 04 24 09  12 26 28.242   -10 14 37.72  .01623 1.0205 155.4 25.1  31d   2
2018 04 24 10  12 26 29.984   -10 14 44.13  .01629 1.0205 155.3 25.1  31d   2
2018 04 24 11  12 26 31.722   -10 14 50.52  .01636 1.0206 155.3 25.1  31d   2
2018 04 24 12  12 26 33.456   -10 14 56.89  .01642 1.0207 155.3 25.1  31d   2
2018 04 24 13  12 26 35.186   -10 15 03.25  .01649 1.0207 155.2 25.1  31d   2
2018 04 24 14  12 26 36.912   -10 15 09.59  .01655 1.0208 155.2 25.1  31d   2
2018 04 24 15  12 26 38.634   -10 15 15.91  .01661 1.0209 155.2 25.1  31d   2
2018 04 24 16  12 26 40.352   -10 15 22.21  .01668 1.0209 155.1 25.1  31d   2
2018 04 24 17  12 26 42.066   -10 15 28.49  .01674 1.0210 155.1 25.1  31d   2
2018 04 24 18  12 26 43.776   -10 15 34.76  .01680 1.0211 155.1 25.1  31d   2
2018 04 24 19  12 26 45.483   -10 15 41.01  .01687 1.0211 155.0 25.2  31d   2
2018 04 24 20  12 26 47.186   -10 15 47.24  .01693 1.0212 155.0 25.2  31d   2
2018 04 24 21  12 26 48.885   -10 15 53.46  .01699 1.0213 155.0 25.2  31d   2
2018 04 24 22  12 26 50.581   -10 15 59.66  .01706 1.0213 154.9 25.2  31d   2
2018 04 24 23  12 26 52.274   -10 16 05.85  .01712 1.0214 154.9 25.2  31d   2
2018 04 25 00  12 26 53.963   -10 16 12.02  .01718 1.0215 154.9 25.2  31d   2
2018 04 25 01  12 26 55.648   -10 16 18.18  .01725 1.0215 154.8 25.2  31d   2
2018 04 25 02  12 26 57.331   -10 16 24.32  .01731 1.0216 154.8 25.2  31d   2